This is the latest recevied weather packets stored in our database for station/object SV9TNF-56. If no packets are shown the sender has not sent any weather packets the latest 10 day(s).
| Time | Temp. | Humidity | Pressure | Rain* | Wind** | Luminosity | Snow |
|---|---|---|---|---|---|---|---|
| 1788476067 | 24.44° C | 66% | 1010.2 hPa | 0 mm | 21.01 m/s, 300° | - | - |
| 1788475766 | 24.44° C | 66% | 1010.2 hPa | 0 mm | 27.27 m/s, 354° | - | - |
| 1788475466 | 25° C | 65% | 1010.2 hPa | 0 mm | 25.48 m/s, 270° | - | - |
| 1788475166 | 25° C | 64% | 1010.2 hPa | 0 mm | 12.07 m/s, 234° | - | - |
| 1788474866 | 25° C | 64% | 1010.2 hPa | 0 mm | 11.18 m/s, 251° | - | - |
| 1788474566 | 25° C | 64% | 1010.2 hPa | 0 mm | 8.49 m/s, 270° | - | - |
| 1788474265 | 25° C | 64% | 1010.2 hPa | 0 mm | 15.2 m/s, 306° | - | - |
| 1788473965 | 25° C | 65% | 1010.5 hPa | 0 mm | 12.52 m/s, 354° | - | - |
| 1788473666 | 24.44° C | 65% | 1010.5 hPa | 0 mm | 8.05 m/s, 312° | - | - |
| 1788473365 | 24.44° C | 64% | 1010.5 hPa | 0 mm | 8.94 m/s, 318° | - | - |
| 1788473065 | 24.44° C | 68% | 1010.2 hPa | 0 mm | 8.05 m/s, 329° | - | - |
| 1788472765 | 24.44° C | 67% | 1010.5 hPa | 0 mm | 9.83 m/s, 270° | - | - |
| 1788472465 | 24.44° C | 66% | 1010.5 hPa | 0 mm | 12.96 m/s, 300° | - | - |
| 1788472165 | 24.44° C | 65% | 1010.2 hPa | 0 mm | 23.69 m/s, 276° | - | - |
| 1788471865 | 24.44° C | 65% | 1010.2 hPa | 0 mm | 29.5 m/s, 257° | - | - |
| 1788471565 | 24.44° C | 67% | 1009.8 hPa | 0 mm | 15.2 m/s, 96° | - | - |
| 1788471265 | 24.44° C | 67% | 1009.8 hPa | 0 mm | 19.67 m/s, 222° | - | - |
| 1788470964 | 24.44° C | 66% | 1009.8 hPa | 0 mm | 8.05 m/s, 216° | - | - |
| 1788470665 | 24.44° C | 65% | 1009.8 hPa | 0 mm | 15.2 m/s, 265° | - | - |
| 1788470364 | 24.44° C | 65% | 1009.8 hPa | 0 mm | 12.52 m/s, 245° | - | - |
| 1788470064 | 24.44° C | 66% | 1009.8 hPa | 0 mm | 9.83 m/s, 180° | - | - |
| 1788469764 | 24.44° C | 67% | 1009.8 hPa | 0 mm | 8.49 m/s, 120° | - | - |
| 1788469464 | 24.44° C | 66% | 1009.8 hPa | 0 mm | 8.05 m/s, 161° | - | - |
| 1788469164 | 24.44° C | 66% | 1009.5 hPa | 0 mm | 17.88 m/s, 160° | - | - |
| 1788468864 | 24.44° C | 66% | 1009.8 hPa | 0 mm | 13.86 m/s, 183° | - | - |
* Rain latest hour (hover to see other rain measurements)
** Current wind speed in m/s (hover to see current wind gust speed)